Station LOPL1 - Louisiana Offshore Oil Port, LA Image indicating link to RSS feed of recent meteorological observations for station LOPL1


Conditions at LOPL1 as of
(12:32 pm CDT)
1732 GMT on 05/26/2024:
     

Click on the graph icon in the table below to see a time series plot of the last five days of that observation.

5-day plot - Wind Direction Wind Direction (WDIR): W ( 270 deg true )
5-day plot - Wind Speed Wind Speed (WSPD): 12.0 kts
5-day plot - Wind Gust Wind Gust (GST): 14.0 kts
5-day plot - Wave Height Wave Height (WVHT): 3.0 ft
5-day plot - Atmospheric Pressure Atmospheric Pressure (PRES):29.92 in
5-day plot - Air Temperature Air Temperature (ATMP): 81.3 °F
5-day plot - Dew Point Dew Point (DEWP): 77.2 °F
5-day plot - Heat Index Heat Index (HEAT): 88.7 °F
5-day plot - Wind Speed at 10 Meters Wind Speed at 10 meters (WSPD10M): 11.7 kts
5-day plot - Wind Speed at 20 Meters Wind Speed at 20 meters (WSPD20M): 11.7 kts
5-day plot -  Wind Speed, Wind Gust and Atmospheric Pressure Combined plot of Wind Speed, Gust, and Air Pressure
Previous observations
TIME
(CDT)
5-day plot - Wind Direction
WDIR
 
5-day plot - Wind Speed
WSPD
kts
5-day plot - Wind Gust
GST
kts
5-day plot - Wave Height
WVHT
ft
5-day plot - Dominant Wave Period
DPD
sec
5-day plot - Average Wave Period
APD
sec
5-day plot - Mean Wave Direction
MWD
 
5-day plot - Atmospheric Pressure
PRES
in
5-day plot - Pressure Tendency
PTDY
in
5-day plot - Air Temperature
ATMP
°F
5-day plot - Water Temperature
WTMP
°F
5-day plot - Dew Point
DEWP
°F
5-day plot - Salinity
SAL
psu
5-day plot - Visibility
VIS
nmi
5-day plot - Tide (above MLLW)
TIDE
ft
2024-05-26 11:32 amSSW 11.1 13.0 3.0---29.92- 81.0- 77.2---
2024-05-26 10:32 amSSW 14.0 15.9 3.3---29.92- 80.6- 76.6---
2024-05-26 09:32 amSSW 15.9 17.1 3.3---29.92- 80.8- 75.6---
2024-05-26 08:32 amSSW 15.0 17.1 3.3---29.89- 80.6- 76.3---
2024-05-26 07:32 am S 15.9 19.0 3.0---29.86- 80.2- 76.5---
2024-05-26 06:32 amSSW 19.0 22.0 3.3---29.86- 80.1- 75.0---
2024-05-26 05:32 am SW 19.0 21.0 3.3---29.83- 79.7- 75.6---
2024-05-26 04:32 am SW 18.1 20.0 3.0---29.86- 79.9- 76.1---
2024-05-26 03:32 amSSW 15.0 17.1 3.0---29.86- 80.1- 76.3---
2024-05-26 02:32 am S 15.9 18.1 3.0---29.89- 80.1- 75.6---
2024-05-26 01:32 am S 15.9 18.1 2.6---29.89- 80.1- 75.6---
2024-05-26 12:32 am S 14.0 15.9 2.6---29.92- 79.9- 76.3---
2024-05-25 11:32 pm S 14.0 15.9 2.6---29.92- 80.1- 76.5---
2024-05-25 10:27 pm SW 14.0 15.9 2.6---29.92- 80.1- 76.3---
2024-05-25 09:27 pm S 14.0 15.0 2.6---29.92- 80.2- 76.6---
2024-05-25 08:27 pm S 15.0 17.1 2.6---29.89- 80.4- 76.5---
2024-05-25 07:27 pm S 14.0 15.9 2.6---29.86- 80.2- 76.5---
2024-05-25 06:27 pm S 13.0 14.0 2.6---29.89- 80.2- 76.8---
2024-05-25 05:27 pm S 11.1 12.0 2.3---29.89- 80.6- 76.5---
2024-05-25 04:27 pmSSW 8.9 9.9 2.6---29.89- 81.1- 76.8---
2024-05-25 03:27 pmSSW 9.9 11.1 2.6---29.92- 81.1- 76.1---
2024-05-25 02:27 pm S 9.9 12.0 2.6---29.92- 80.8- 76.8---
2024-05-25 01:27 pmSSW 11.1 12.0 3.0---29.95- 80.8- 76.5---